This demonstration page uses our WeatherBlox Daily Observations layout. Learn more.

Hourly Observations for February 7, 2021

Temp ( °F °C ) Dew Point ( °F °C ) Humidity (%) Winds ( mph kmh ) Pressure ( in mb ) Visibility ( mi km ) Precip ( " mm )
12:15 am 00:15 Clear 36 2 28 -2 75 75 Calm 30.07 1018 10 16.0934 0 0
12:35 am 00:35 Clear 36 2 28 -2 75 75 Calm 30.08 1019 10 16.0934 0 0
12:55 am 00:55 Clear 36 2 28 -2 75 75 Calm 30.06 1018 10 16.0934 0 0
1:15 am 01:15 Clear 34 1 28 -2 81 81 Calm 30.04 1017 10 16.0934 0 0
1:35 am 01:35 Clear 36 2 28 -2 75 75 Calm 30.04 1017 10 16.0934 0 0
1:55 am 01:55 Mostly Cloudy 36 2 27 -3 70 70 ENE 3 6 30.03 1017 10 16.0934 0 0
2:15 am 02:15 Partly Cloudy 34 1 28 -2 81 81 NNW 3 6 30.03 1017 10 16.0934 0 0
2:35 am 02:35 Mostly Cloudy 34 1 28 -2 81 81 Calm 30.02 1017 10 16.0934 0 0
2:55 am 02:55 Cloudy 36 2 28 -2 75 75 Calm 30.01 1016 10 16.0934 0 0
3:15 am 03:15 Cloudy 34 1 28 -2 81 81 NW 3 6 30.02 1017 10 16.0934 0 0
3:35 am 03:35 Cloudy 34 1 28 -2 81 81 Calm 30.01 1016 10 16.0934 0 0
3:55 am 03:55 Cloudy with Drizzle 36 2 28 -2 75 75 Calm 30.02 1017 10 16.0934 0 0
4:15 am 04:15 Cloudy with Light Rain 34 1 32 0 93 93 SSW 3 6 30.01 1016 7 11.26538 0 0
4:35 am 04:35 Cloudy with Light Rain 36 2 32 0 87 87 SW 3 6 30.01 1016 5 8.0467 0.01 0.254
4:55 am 04:55 Cloudy with Light Wintry Mix 34 1 32 0 93 93 N 5 7 30 1016 7 11.26538 0.02 0.508
5:15 am 05:15 Cloudy with Light Snow 34 1 32 0 93 93 N 6 9 29.99 1016 4 6.43736 0.01 0.254
5:35 am 05:35 Cloudy with Light Snow 32 0 32 0 100 100 N 5 7 29.99 1016 3 4.82802 0.02 0.508
5:55 am 05:55 Cloudy with Light Snow 32 0 32 0 100 100 Calm 29.98 1015 2.5 4.02335 0.02 0.508
6:15 am 06:15 Cloudy with Light Snow 32 0 32 0 100 100 Calm 29.98 1015 2 3.21868 0 0
6:35 am 06:35 Cloudy with Light Snow 32 0 32 0 100 100 Calm 29.97 1015 1.25 2.011675 0 0
6:55 am 06:55 Cloudy with Snow 32 0 32 0 100 100 NNE 3 6 29.97 1015 1 1.60934 0 0
7:15 am 07:15 Cloudy with Light Snow 32 0 32 0 100 100 Calm 29.98 1015 1 1.60934 0 0
7:35 am 07:35 Cloudy with Snow 32 0 32 0 100 100 NNW 3 6 29.99 1016 0.5 0.80467 0 0
7:55 am 07:55 Cloudy with Snow 32 0 32 0 100 100 N 3 6 29.98 1015 0.5 0.80467 0 0
8:15 am 08:15 Cloudy with Light Snow 32 0 32 0 100 100 NNE 5 7 29.98 1015 0.75 1.207005 0 0
8:35 am 08:35 Cloudy with Light Snow 30 -1 30 -1 100 100 NNE 7 11 29.96 1015 0.75 1.207005 0 0
8:55 am 08:55 Cloudy with Light Snow 30 -1 30 -1 100 100 N 5 7 29.96 1015 0.75 1.207005 0 0
9:15 am 09:15 Cloudy with Light Snow 30 -1 30 -1 100 100 N 3 6 29.97 1015 2 3.21868 0 0
9:35 am 09:35 Cloudy with Light Snow 30 -1 30 -1 100 100 NNE 7 11 29.95 1014 1.25 2.011675 0 0
9:55 am 09:55 Cloudy with Light Snow 30 -1 30 -1 100 100 N 6 9 29.96 1015 1.75 2.816345 0 0
10:15 am 10:15 Cloudy with Light Snow 30 -1 30 -1 100 100 N 3 6 29.97 1015 1 1.60934 0 0
10:35 am 10:35 Cloudy with Light Snow 30 -1 30 -1 100 100 Calm 29.96 1015 1 1.60934 0 0
10:55 am 10:55 Cloudy with Light Snow 30 -1 30 -1 100 100 Calm 29.96 1015 0.75 1.207005 0 0
11:15 am 11:15 Cloudy with Light Snow 30 -1 30 -1 100 100 NNW 6 9 29.96 1015 0.75 1.207005 0 0
11:35 am 11:35 Cloudy with Light Snow 30 -1 30 -1 100 100 NNW 6 9 29.95 1014 1.5 2.41401 0 0
11:55 am 11:55 Cloudy with Light Wintry Mix 32 0 32 0 100 100 NNW 8 13 29.95 1014 2.5 4.02335 0.01 0.254
12:15 pm 12:15 Cloudy with Light Snow 32 0 32 0 100 100 NNW 9 15 29.94 1014 5 8.0467 0.05 1.27
12:35 pm 12:35 Cloudy 32 0 32 0 100 100 NNW 10 17 29.94 1014 10 16.0934 0.1 2.54
12:55 pm 12:55 Cloudy 32 0 32 0 100 100 NNW 7 11 29.93 1014 10 16.0934 0.17 4.318
1:15 pm 13:15 Cloudy 32 0 32 0 100 100 NNW 13 20 29.92 1013 10 16.0934 0.05 1.27
1:35 pm 13:35 Mostly Cloudy 34 1 32 0 93 93 N 8 13 29.91 1013 10 16.0934 0.09 2.286
1:55 pm 13:55 Partly Cloudy 34 1 32 0 93 93 N 6 9 29.91 1013 10 16.0934 0.1 2.54
2:15 pm 14:15 Partly Cloudy 34 1 32 0 93 93 NNW 10 17 29.93 1014 10 16.0934 0 0
2:35 pm 14:35 Mostly Cloudy 34 1 32 0 93 93 NNW 9 15 29.93 1014 10 16.0934 0 0
2:55 pm 14:55 Cloudy 34 1 32 0 93 93 N 3 6 29.94 1014 10 16.0934 0 0
3:15 pm 15:15 Cloudy 36 2 32 0 87 87 N 10 17 29.95 1014 10 16.0934 0 0
3:35 pm 15:35 Cloudy 34 1 32 0 93 93 N 12 19 29.96 1015 10 16.0934 0 0
3:55 pm 15:55 Mostly Cloudy 34 1 32 0 93 93 NNW 13 20 29.96 1015 10 16.0934 0 0
4:15 pm 16:15 Partly Cloudy 36 2 30 -1 81 81 NW 18 30 29.97 1015 10 16.0934 0 0
4:35 pm 16:35 Partly Cloudy 34 1 27 -3 75 75 NW 18 30 29.98 1015 10 16.0934 0 0
4:55 pm 16:55 Partly Cloudy 34 1 27 -3 75 75 NW 15 24 29.99 1016 10 16.0934 0 0
5:15 pm 17:15 Sunny 34 1 25 -4 70 70 NW 14 22 30.01 1016 10 16.0934 0 0
5:35 pm 17:35 Sunny 34 1 23 -5 65 65 NW 14 22 30.02 1017 10 16.0934 0 0
5:55 pm 17:55 Clear 32 0 23 -5 69 69 NNW 13 20 30.04 1017 10 16.0934 0 0
6:15 pm 18:15 Clear 32 0 19 -7 60 60 NW 14 22 30.06 1018 10 16.0934 0 0
6:35 pm 18:35 Clear 32 0 19 -7 60 60 NW 14 22 30.08 1019 10 16.0934 0 0
6:55 pm 18:55 Clear 32 0 19 -7 60 60 NW 12 19 30.1 1019 10 16.0934 0 0
7:15 pm 19:15 Clear 32 0 18 -8 55 55 NW 15 24 30.11 1020 10 16.0934 0 0
7:35 pm 19:35 Clear 32 0 16 -9 51 51 NW 14 22 30.12 1020 10 16.0934 0 0
7:55 pm 19:55 Clear 32 0 14 -10 47 47 NW 12 19 30.14 1021 10 16.0934 0 0
8:15 pm 20:15 Clear 30 -1 14 -10 51 51 NW 15 24 30.15 1021 10 16.0934 0 0
8:35 pm 20:35 Clear 30 -1 12 -11 47 47 NW 5 7 30.16 1021 10 16.0934 0 0
8:55 pm 20:55 Clear 30 -1 10 -12 43 43 NNW 7 11 30.17 1022 10 16.0934 0 0
9:15 pm 21:15 Clear 30 -1 10 -12 43 43 ENE 5 7 30.17 1022 10 16.0934 0 0
9:35 pm 21:35 Clear 30 -1 12 -11 47 47 N 3 6 30.19 1022 10 16.0934 0 0
9:55 pm 21:55 Clear 30 -1 12 -11 47 47 Calm 30.2 1023 10 16.0934 0 0
10:15 pm 22:15 Clear 30 -1 12 -11 47 47 Calm 30.22 1023 10 16.0934 0 0
10:35 pm 22:35 Clear 28 -2 10 -12 47 47 NNW 8 13 30.23 1024 10 16.0934 0 0
10:55 pm 22:55 Clear 28 -2 10 -12 47 47 N 7 11 30.23 1024 10 16.0934 0 0
11:15 pm 23:15 Clear 28 -2 9 -13 43 43 Calm 30.23 1024 10 16.0934 0 0
11:35 pm 23:35 Clear 28 -2 10 -12 47 47 Calm 30.25 1024 10 16.0934 0 0
11:55 pm 23:55 Clear 27 -3 10 -12 50 50 N 5 7 30.26 1025 10 16.0934 0 0

Powered by AerisWeather